SCP
0 0 0 0 0 0 0 0 0 0 0 0 0 0 0 0 0 0 0 0 0 0 0 0 -0 -0 0 0 -0 -0 -0 -0 -0 -0 -0 -0 -0 -0 -0 -0 -0 -0 -0 -0 -0 -0 -0 -0 -0
0 0 0 0 0 0 0 0 0 0 0 0 0 0 0 0 0 0 0 0 0 0 0 0 -0 -0 0 0 -0 -0 -0 -0 -0 -0 -0 -0 -0 -0 -0 -0 -0 -0 -0 -0 -0 -0 -0 -0 -0
0 0 0 0 0 0 0 0 0 0 0 0 0 0 0 0 0 0 0 0 0 0 0 0 -0 -0 -0 -0 -0 -0 -0 -0 -0 -0 -0 -0 -0 -0 -0 -0 -0 -0 -0 -0 -0 -0 -0 -0 -0
0 0 0 0 0 0 0 0 0 0 0 0 0 0 0 0 0 0 0 0 0 0 0 0 0 -0 -0 -0 -0 -0 -0 -0 -0 -0 -0 -0 -0 -0 -0 -0 -0 -0 -0 -0 -0 -0 -0 -0 -0
0 0 0 0 0 0 0 0 0 0 0 0 0 0 0 0 0 0 0 0 0 0 0 0 0 0 0 -0 -0 -0 -0 -0 -0 -0 -0 -0 -0 -0 -0 -0 -0 -0 -0 -0 -0 -0 -0 -0 -0
0 0 0 0 0 0 0 0 0 0 0 0 0 0 0 0 0 0 0 0 0 0 0 0 0 0 0 0 -0 -0 -0 -0 -0 -0 -0 -0 -0 -0 -0 -0 -0 -0 -0 -0 -0 -0 -0 -0 -0
0 0 0 0 0 0 0 0 0 0 0 0 0 0 0 0 0 0 0 0 0 0 0 0 0 0 0 0 0 0 -0 -0 -0 -0 -0 -0 -0 -0 -0 -0 -0 -0 -0 -0 -0 -0 -0 0 0
-0 -0 0 0 0 0 0 0 0 0 0 0 0 0 0 0 0 0 0 0 0 0 0 0 0 0 0 0 0 0 0 0 0 0 0 0 0 0 0 0 -0 -0 -0 -0 0 0 0 0 0
0 0 -0 0 0 0 0 0 0 0 0 0 0 0 0 0 0 0 0 0 0 0 0 0 0 0 0 0 0 0 0 0 0 0 0 0 0 0 0 0 0 0 0 0 0 0 0 0 0
0 0 0 0 0 0 0 0 0 0 0 0 0 0 0 0 0 0 0 0 0 0 0 0 0 0 0 0 0 0 0 0 0 0 0 0 0 0 0 0 0 0 0 0 0 0 0 0 0
-0 0 0 0 -0 0 -0 -0 -0 -0 0 0 0 0 0 0 0 0 0 0 0 0 0 0 0 0 0 0 0 0 0 0 0 0 0 0 0 0 0 0 0 0 0 0 0 0 0 0 0
0 0 0 0 0 0 -0 -0 0 0 -0 0 0 0 0 0 0 0 0 0 0 0 0 0 0 0 0 0 0 0 0 0 0 0 0 0 0 0 0 0 0 0 0 0 0 0 0 0 0
0 0 0 0 0 0 0 0 -0 0 0 0 0 0 0 0 0 0 0 0 0 0 0 0 0 0 0 0 0 0 0 0 0 0 0 0 0 0 0 0 0 0 0 0 0 0 0 0 0
0 0 0 0 0 0 0 0 0 0 -0 0 0 0 0 0 0 0 0 0 0 0 0 0 0 0 0 0 0 0 0 0 0 0 0 0 0 0 0 0 0 0 0 0 0 0 0 0 0
0 0 0 0 0 0 0 0 0 0 -0 -0 0 -0 -0 0 0 0 -0 0 0 0 0 0 0 0 0 0 0 0 0 0 0 0 0 0 0 0 0 0 0 0 0 0 0 0 0 0 0
0 0 0 0 0 0 0 -0 0 0 0 0 -0 0 0 0 -0 -0 -0 -0 -0 0 0 0 0 0 0 0 0 0 0 0 0 0 0 0 0 0 0 0 0 0 0 0 0 0 0 0 0
0 0 0 0 0 0 0 0 0 -0 -0 -0 -0 0 0 -0 -0 -0 -0 -0 0 0 0 0 0 0 0 0 0 0 0 0 0 0 0 0 0 0 0 0 0 0 0 0 0 0 0 0 0
0 0 0 0 0 0 0 0 0 0 -0 -0 -0 -0 0 -0 -0 -0 -0 -0 0 0 0 0 0 0 0 0 0 0 0 0 0 0 0 0 0 0 0 0 0 0 0 0 0 0 0 0 0
0 0 0 0 0 0 0 0 0 0 0 0 0 -0 -0 -0 -0 -0 -0 -0 -0 0 0 0 0 0 0 0 0 0 0 0 0 0 0 0 0 0 0 0 0 0 0 0 0 0 0 0 0
0 0 0 0 0 0 0 -0 0 0 -0 -0 0 0 0 0 -0 -0 -0 -0 -0 0 0 0 0 0 0 0 0 0 0 0 0 0 0 0 0 0 0 0 0 0 0 0 0 0 0 0 0
0 0 0 0 0 0 0 0 0 0 -0 -0 -0 -0 -0 -0 -0 -0 -0 -0 -0 -0 -0 -0 -0 -0 -0 -0 0 0 0 0 0 0 0 0 0 0 0 0 0 0 0 0 0 0 0 0 0
0 0 0 0 0 0 0 0 0 0 0 -0 -0 -0 -0 -0 -0 -0 -0 -0 -0 -0 -0 -0 -0 -0 -0 0 0 0 0 0 0 0 0 0 0 0 0 0 0 0 0 0 0 0 0 0 0
0 0 0 0 0 0 0 0 0 0 0 -0 -0 -0 -0 -0 -0 -0 -0 -0 -0 -0 0 0 0 0 0 0 0 0 0 0 0 0 0 0 0 0 0 0 0 0 0 0 0 0 0 0 0
0 0 0 0 0 0 0 0 0 0 0 0 0 -0 -0 -0 -0 -0 -0 -0 0 0 0 0 0 0 0 0 0 0 0 0 0 0 0 0 0 0 0 0 0 0 0 0 0 0 0 0 0
0 0 -0 0 0 0 0 0 0 0 0 0 0 0 0 0 0 0 0 0 0 0 0 0 0 0 0 0 0 0 0 0 0 0 0 0 0 0 0 0 0 0 0 0 0 0 0 0 0
0 0 0 0 0 0 0 0 0 0 0 0 0 0 0 0 0 0 0 0 0 0 0 0 0 0 0 0 0 0 0 0 0 0 0 0 0 0 0 0 0 0 0 0 0 0 0 0 0
0 0 0 0 0 0 0 0 0 0 0 -0 0 0 0 0 0 0 0 0 0 0 0 0 0 0 0 0 0 0 0 0 0 0 0 0 0 0 0 0 0 0 0 0 0 0 0 0 0
0 0 0 0 0 0 0 0 0 0 0 0 0 0 0 0 0 0 0 0 0 0 0 0 0 0 0 0 0 0 0 0 0 0 0 0 0 0 0 0 0 0 0 0 0 0 0 0 0
0 0 0 0 0 0 0 0 0 0 0 0 0 0 0 0 0 0 0 0 0 0 0 0 0 0 0 0 0 0 0 0 0 0 0 0 0 0 0 0 0 0 0 0 0 0 0 0 0
0 0 0 0 0 0 0 0 0 0 0 0 0 0 0 0 0 0 0 0 0 0 0 0 0 0 0 0 0 0 0 0 0 0 0 0 0 0 0 0 0 0 0 0 0 0 0 0 0
Wind_Speed_500mb
22 17 10 12 15 15 33 14 11 15 9 13 15 14 17 16 13 4 6 11 19 25 39 30 21 12 28 18 12 20 23 20 20 21 16 14 20 21 19 21 18 17 17 18 19 15 12 11 10
14 12 9 11 15 28 15 4 18 16 16 9 14 8 17 10 12 3 10 6 20 33 44 37 43 29 31 22 22 21 25 26 23 20 19 17 18 17 16 14 12 12 14 17 13 14 19 14 7
8 10 16 7 16 26 6 20 19 12 18 17 7 18 10 8 9 3 3 4 19 29 49 60 58 56 42 35 34 32 30 26 25 23 20 20 18 16 15 11 4 8 9 8 16 20 15 14 17
6 16 12 19 4 12 11 13 19 8 13 20 14 12 8 7 4 4 2 7 18 24 38 59 66 57 47 43 38 32 31 27 27 25 22 18 13 6 2 1 2 7 6 9 14 16 15 14 15
7 14 13 2 7 4 12 15 17 12 8 18 13 4 4 8 3 0 3 8 15 22 24 39 56 57 44 36 29 26 24 19 18 14 11 10 7 6 7 7 7 7 8 10 12 12 12 12 13
10 10 12 13 10 4 3 12 7 12 13 9 7 5 3 5 6 5 3 5 14 16 21 25 39 44 48 37 29 24 19 12 11 8 6 6 4 4 5 6 6 7 8 9 7 7 7 8 10
11 2 9 14 9 6 3 6 6 7 5 4 2 3 5 12 4 7 7 5 10 15 19 19 21 33 34 30 23 21 17 11 11 8 4 3 2 5 6 7 8 8 10 12 12 10 8 5 3
9 7 9 14 4 4 3 3 4 6 3 3 6 5 3 12 3 5 12 6 7 12 16 17 19 18 18 20 15 14 13 14 14 9 3 5 3 6 4 3 4 6 7 7 7 7 5 2 3
9 7 8 4 4 2 1 1 5 4 4 4 5 6 12 9 6 4 8 7 7 8 10 14 19 19 22 18 18 18 18 18 16 11 6 4 2 3 4 4 5 6 7 8 8 7 5 3 1
18 8 6 3 8 5 6 6 6 5 4 4 5 5 9 10 8 5 3 6 8 8 11 10 13 16 19 16 16 22 22 21 21 15 10 5 3 3 5 9 7 7 7 7 7 6 4 4 6
17 10 13 12 14 12 7 2 3 0 3 9 7 8 7 12 12 10 10 8 9 9 12 13 13 15 15 17 17 18 20 23 17 11 12 10 8 7 8 7 5 7 7 7 5 4 4 6 8
15 16 9 14 13 10 9 7 2 14 11 12 10 8 10 12 15 14 17 14 13 14 16 17 15 14 14 17 20 18 21 18 16 14 11 9 6 5 5 5 6 8 9 12 11 11 11 11 12
23 14 18 14 10 7 9 4 5 14 14 11 10 11 13 18 22 24 22 24 18 19 21 19 21 20 18 18 18 19 16 16 15 16 12 11 8 7 10 10 11 13 14 15 15 14 14 13 14
18 22 8 3 2 5 2 4 2 17 17 14 13 15 18 20 21 22 26 27 26 24 26 26 19 23 23 20 20 21 19 20 17 13 11 10 10 9 11 13 15 15 15 16 16 15 14 14 14
10 9 8 3 4 7 11 10 14 17 27 20 22 21 24 26 29 27 25 24 24 25 25 25 24 21 21 21 22 19 17 14 15 14 13 13 10 13 12 12 14 16 17 17 18 16 14 12 12
5 7 12 13 8 1 4 4 12 23 27 25 26 26 24 25 29 29 28 25 25 24 22 20 21 23 19 20 19 19 19 17 12 9 8 9 11 13 12 12 15 17 17 18 17 18 16 12 10
11 17 17 3 5 9 12 20 14 26 27 23 25 25 27 28 31 34 33 30 27 25 24 24 27 29 28 26 25 23 20 18 19 19 13 12 11 12 11 13 16 17 18 17 19 19 17 13 10
19 20 21 17 10 13 22 33 11 29 34 32 29 30 31 32 34 33 39 40 39 40 39 39 39 38 37 34 29 27 28 28 26 23 22 19 16 15 13 12 13 15 16 16 17 17 18 14 11
1 10 19 19 8 25 12 24 25 33 41 40 39 38 36 35 30 33 35 42 42 44 45 45 45 44 43 42 41 36 31 28 26 19 18 17 14 12 12 11 11 11 12 13 13 14 16 16 11
7 9 12 12 4 18 25 45 31 31 46 48 43 42 41 38 38 38 39 42 53 52 51 52 52 50 47 44 40 37 36 35 32 30 27 24 22 20 16 13 11 10 10 10 10 10 13 15 16
4 7 10 11 27 11 30 13 6 17 39 42 47 44 44 45 45 45 47 48 47 55 57 56 54 54 55 52 46 45 40 39 39 37 35 32 28 24 19 15 12 8 5 4 4 6 7 7 11
8 8 11 16 19 6 18 8 8 10 22 37 47 54 52 52 50 50 51 52 53 54 53 56 58 59 58 57 54 53 51 49 45 44 42 38 33 28 24 20 18 14 10 7 4 1 2 3 4
8 13 14 13 6 5 5 4 3 6 14 34 50 58 59 56 56 59 60 61 60 58 59 62 63 65 64 63 63 60 57 51 44 47 47 44 40 35 32 29 23 19 16 14 10 6 7 6 7
19 13 12 6 5 5 6 6 12 4 6 5 15 51 59 61 63 63 61 61 64 68 72 72 73 75 72 72 72 70 66 62 57 56 55 52 48 44 41 35 32 27 22 19 17 15 14 12 12
11 16 6 4 5 4 5 9 21 20 16 14 6 22 45 56 60 67 71 75 76 77 83 83 83 84 82 82 80 78 75 70 68 64 62 59 57 55 49 43 40 35 31 27 24 22 21 19 20
4 5 7 12 10 13 3 12 4 7 13 10 23 26 22 48 60 69 76 79 83 85 87 89 92 91 90 88 87 84 82 81 78 74 70 67 64 59 52 51 47 42 37 33 31 32 28 27 28
3 3 4 1 3 4 7 11 21 5 12 22 30 22 34 38 53 64 70 80 87 90 94 95 95 97 97 96 94 93 91 91 88 84 78 75 70 67 61 58 53 49 45 41 38 38 35 34 35
5 3 4 5 9 13 10 7 12 10 5 7 9 21 29 32 41 51 62 74 86 94 97 99 101 104 101 102 103 102 100 98 95 92 90 86 82 74 70 65 61 56 52 48 45 43 41 41 41
8 8 9 4 6 9 13 7 9 15 3 7 12 12 15 27 36 38 45 52 72 89 100 106 109 109 111 110 111 110 109 107 104 102 97 94 88 82 78 73 69 63 59 54 51 48 46 46 45
5 7 14 9 10 9 8 21 33 2 10 19 30 28 36 30 28 28 39 46 63 75 89 106 113 116 117 118 117 117 115 113 113 112 106 101 98 91 86 80 74 69 64 59 55 52 50 50 50
Wind_Direction_500mb
264 304 268 230 225 223 240 127 109 104 68 33 41 34 91 60 39 10 197 117 102 85 84 114 132 159 139 147 148 136 124 131 116 109 115 127 124 121 131 125 100 65 44 43 51 60 60 49 51
258 286 242 230 249 210 218 100 96 62 29 32 47 32 47 71 43 22 138 57 116 94 93 121 86 110 139 132 116 120 138 147 141 128 137 142 140 156 158 150 136 115 76 62 56 45 57 57 53
274 248 218 240 222 238 152 45 64 67 36 29 60 52 44 28 17 118 221 94 128 111 106 117 94 73 121 127 133 130 137 148 164 151 149 155 157 165 174 185 243 317 335 2 16 35 43 33 41
246 210 228 225 89 58 55 61 1 18 36 49 12 47 72 75 39 303 262 144 149 134 117 114 113 110 110 136 161 169 162 161 159 158 168 171 182 185 134 182 34 46 33 17 32 35 34 38 45
226 240 216 262 92 40 36 15 28 25 21 21 25 78 70 317 227 337 160 161 162 157 142 129 132 138 149 157 167 185 196 169 157 148 138 128 109 78 58 51 42 40 27 19 30 36 33 31 37
210 266 220 173 101 116 48 14 353 54 29 5 53 56 295 285 271 243 134 156 172 173 170 153 142 151 162 171 179 199 215 173 149 135 121 105 88 51 22 8 7 6 2 357 3 13 22 28 41
59 86 72 106 122 119 58 352 20 44 64 17 65 221 211 292 265 250 139 157 180 185 185 183 165 163 179 184 193 209 197 182 170 153 126 115 358 329 327 329 335 336 339 338 331 323 317 334 7
63 64 79 17 101 104 43 67 77 44 301 188 150 236 205 233 251 226 151 153 190 186 201 200 192 194 187 204 217 235 238 216 202 183 181 286 321 310 316 346 341 348 356 350 344 334 332 12 280
339 102 86 47 11 98 231 82 23 34 240 245 198 231 261 206 177 259 152 147 177 183 192 201 214 215 222 222 225 228 229 218 220 202 196 272 316 43 28 21 37 33 29 34 38 37 28 38 184
6 72 112 334 357 119 85 15 16 334 303 325 312 217 185 200 159 185 251 162 165 168 180 189 198 212 224 224 222 214 211 213 193 185 194 167 157 109 84 67 40 42 53 49 44 55 77 95 104
22 67 113 66 95 121 120 162 216 337 298 243 258 265 177 172 196 185 200 207 180 152 157 163 167 186 195 197 193 198 192 192 181 180 157 150 142 120 89 76 47 32 33 42 56 82 105 114 117
90 69 97 156 156 162 175 156 158 205 239 217 231 244 213 190 189 195 194 193 180 153 148 153 154 151 146 157 162 174 174 173 162 175 142 138 145 120 110 98 85 78 74 78 81 85 87 94 99
64 72 66 90 106 86 124 191 254 228 192 174 191 213 218 205 200 197 197 197 178 161 145 145 149 146 146 144 148 156 165 146 145 145 146 144 135 137 119 108 98 93 86 83 83 86 91 96 103
60 74 97 49 306 166 50 295 338 228 195 189 196 208 212 216 211 205 203 198 194 183 165 145 148 149 153 156 153 151 151 148 152 147 141 135 132 123 114 114 107 101 96 88 87 88 93 96 100
135 5 158 173 305 285 285 222 231 195 190 212 215 218 212 205 211 214 215 214 209 203 199 174 166 170 162 167 161 164 167 154 144 148 146 136 132 121 120 119 114 107 99 91 87 88 88 97 101
254 255 328 56 345 111 208 328 202 187 197 212 209 214 216 213 214 212 212 212 208 204 199 187 189 169 164 162 163 157 145 139 135 120 131 140 132 128 125 117 112 103 100 97 91 94 95 99 114
52 2 3 150 40 317 253 317 188 196 211 225 219 219 220 219 212 211 206 201 192 184 179 175 172 171 177 183 187 198 207 196 189 181 169 158 157 147 132 119 117 113 107 102 97 88 86 95 103
342 356 343 352 4 316 261 266 233 218 218 227 224 221 220 219 218 212 210 205 200 197 194 192 193 195 196 200 199 195 184 179 182 179 182 180 173 163 147 136 126 123 117 107 99 94 86 83 102
241 305 313 333 8 328 274 276 274 216 228 230 225 219 219 220 215 208 207 213 210 208 204 203 203 203 204 201 196 194 200 208 209 200 200 192 182 174 174 158 144 133 122 113 109 99 88 78 91
329 329 358 303 307 323 309 295 264 214 222 224 225 224 220 214 208 207 207 209 212 212 210 211 210 208 204 204 213 219 217 211 210 205 202 200 200 194 187 180 168 156 138 123 109 103 93 77 69
39 6 360 323 316 91 317 272 199 219 213 222 227 228 224 219 215 212 210 210 210 213 214 214 213 214 216 216 214 215 215 217 215 214 213 212 211 208 204 200 198 192 176 153 127 89 76 79 63
326 17 318 328 354 348 14 289 265 187 219 226 225 225 224 219 217 216 215 215 214 215 214 216 215 216 216 216 218 220 221 220 222 223 221 219 218 215 213 212 214 214 210 219 222 184 60 32 10
348 330 321 318 343 295 31 292 249 135 249 236 227 225 224 223 220 217 215 215 215 218 218 220 220 222 222 222 224 225 225 225 226 226 225 225 225 224 222 222 225 226 228 236 248 267 285 297 311
312 288 250 292 309 329 124 33 289 196 243 355 247 223 221 219 218 220 219 218 218 220 222 223 223 225 225 225 227 227 228 226 224 226 228 229 230 230 230 229 232 236 241 250 257 264 272 285 295
288 301 307 338 355 316 106 273 257 284 272 242 259 221 219 220 218 217 216 217 220 220 225 224 224 226 225 226 228 228 229 228 230 232 233 233 234 234 235 235 237 240 243 247 256 264 269 277 287
35 354 322 310 307 302 25 232 243 261 219 246 234 236 225 215 218 220 221 224 229 229 231 230 229 228 228 229 230 231 231 231 231 233 234 235 238 240 240 240 239 241 244 249 256 262 268 276 279
65 205 116 56 112 277 230 262 278 251 271 244 237 235 225 219 221 225 229 233 235 236 236 235 234 236 235 234 234 233 234 234 233 235 235 237 237 239 239 241 242 242 245 248 253 260 266 268 273
291 22 245 151 290 287 226 261 247 268 263 243 251 257 248 237 230 232 237 243 245 244 243 241 240 240 240 240 238 238 237 237 237 237 237 237 239 237 238 239 242 243 246 248 251 258 263 266 272
163 202 212 316 248 263 291 244 233 253 301 322 318 308 264 233 244 251 254 260 257 253 249 247 244 243 242 241 241 241 240 239 239 239 239 239 239 239 239 240 242 242 244 246 249 255 261 266 271
316 280 194 220 202 242 277 268 260 303 312 322 298 284 299 275 255 267 289 286 279 264 257 254 251 247 248 247 244 243 243 242 241 241 240 240 240 239 240 240 241 241 242 245 248 253 258 262 267
Wind_Speed_850mb
22 17 10 12 15 15 33 14 11 15 9 13 15 14 17 16 13 4 6 11 19 25 39 30 21 12 28 18 12 20 23 20 20 21 16 14 20 21 19 21 18 17 17 18 19 15 12 11 10
14 12 9 11 15 28 15 4 18 16 16 9 14 8 17 10 12 3 10 6 20 33 44 37 43 29 31 22 22 21 25 26 23 20 19 17 18 17 16 14 12 12 14 17 13 14 19 14 7
8 10 16 7 16 26 6 20 19 12 18 17 7 18 10 8 9 3 3 4 19 29 49 60 58 56 42 35 34 32 30 26 25 23 20 20 18 16 15 11 4 8 9 8 16 20 15 14 17
6 16 12 19 4 12 11 13 19 8 13 20 14 12 8 7 4 4 2 7 18 24 38 59 66 57 47 43 38 32 31 27 27 25 22 18 13 6 2 1 2 7 6 9 14 16 15 14 15
7 14 13 2 7 4 12 15 17 12 8 18 13 4 4 8 3 0 3 8 15 22 24 39 56 57 44 36 29 26 24 19 18 14 11 10 7 6 7 7 7 7 8 10 12 12 12 12 13
10 10 12 13 10 4 3 12 7 12 13 9 7 5 3 5 6 5 3 5 14 16 21 25 39 44 48 37 29 24 19 12 11 8 6 6 4 4 5 6 6 7 8 9 7 7 7 8 10
11 2 9 14 9 6 3 6 6 7 5 4 2 3 5 12 4 7 7 5 10 15 19 19 21 33 34 30 23 21 17 11 11 8 4 3 2 5 6 7 8 8 10 12 12 10 8 5 3
9 7 9 14 4 4 3 3 4 6 3 3 6 5 3 12 3 5 12 6 7 12 16 17 19 18 18 20 15 14 13 14 14 9 3 5 3 6 4 3 4 6 7 7 7 7 5 2 3
9 7 8 4 4 2 1 1 5 4 4 4 5 6 12 9 6 4 8 7 7 8 10 14 19 19 22 18 18 18 18 18 16 11 6 4 2 3 4 4 5 6 7 8 8 7 5 3 1
18 8 6 3 8 5 6 6 6 5 4 4 5 5 9 10 8 5 3 6 8 8 11 10 13 16 19 16 16 22 22 21 21 15 10 5 3 3 5 9 7 7 7 7 7 6 4 4 6
17 10 13 12 14 12 7 2 3 0 3 9 7 8 7 12 12 10 10 8 9 9 12 13 13 15 15 17 17 18 20 23 17 11 12 10 8 7 8 7 5 7 7 7 5 4 4 6 8
15 16 9 14 13 10 9 7 2 14 11 12 10 8 10 12 15 14 17 14 13 14 16 17 15 14 14 17 20 18 21 18 16 14 11 9 6 5 5 5 6 8 9 12 11 11 11 11 12
23 14 18 14 10 7 9 4 5 14 14 11 10 11 13 18 22 24 22 24 18 19 21 19 21 20 18 18 18 19 16 16 15 16 12 11 8 7 10 10 11 13 14 15 15 14 14 13 14
18 22 8 3 2 5 2 4 2 17 17 14 13 15 18 20 21 22 26 27 26 24 26 26 19 23 23 20 20 21 19 20 17 13 11 10 10 9 11 13 15 15 15 16 16 15 14 14 14
10 9 8 3 4 7 11 10 14 17 27 20 22 21 24 26 29 27 25 24 24 25 25 25 24 21 21 21 22 19 17 14 15 14 13 13 10 13 12 12 14 16 17 17 18 16 14 12 12
5 7 12 13 8 1 4 4 12 23 27 25 26 26 24 25 29 29 28 25 25 24 22 20 21 23 19 20 19 19 19 17 12 9 8 9 11 13 12 12 15 17 17 18 17 18 16 12 10
11 17 17 3 5 9 12 20 14 26 27 23 25 25 27 28 31 34 33 30 27 25 24 24 27 29 28 26 25 23 20 18 19 19 13 12 11 12 11 13 16 17 18 17 19 19 17 13 10
19 20 21 17 10 13 22 33 11 29 34 32 29 30 31 32 34 33 39 40 39 40 39 39 39 38 37 34 29 27 28 28 26 23 22 19 16 15 13 12 13 15 16 16 17 17 18 14 11
1 10 19 19 8 25 12 24 25 33 41 40 39 38 36 35 30 33 35 42 42 44 45 45 45 44 43 42 41 36 31 28 26 19 18 17 14 12 12 11 11 11 12 13 13 14 16 16 11
7 9 12 12 4 18 25 45 31 31 46 48 43 42 41 38 38 38 39 42 53 52 51 52 52 50 47 44 40 37 36 35 32 30 27 24 22 20 16 13 11 10 10 10 10 10 13 15 16
4 7 10 11 27 11 30 13 6 17 39 42 47 44 44 45 45 45 47 48 47 55 57 56 54 54 55 52 46 45 40 39 39 37 35 32 28 24 19 15 12 8 5 4 4 6 7 7 11
8 8 11 16 19 6 18 8 8 10 22 37 47 54 52 52 50 50 51 52 53 54 53 56 58 59 58 57 54 53 51 49 45 44 42 38 33 28 24 20 18 14 10 7 4 1 2 3 4
8 13 14 13 6 5 5 4 3 6 14 34 50 58 59 56 56 59 60 61 60 58 59 62 63 65 64 63 63 60 57 51 44 47 47 44 40 35 32 29 23 19 16 14 10 6 7 6 7
19 13 12 6 5 5 6 6 12 4 6 5 15 51 59 61 63 63 61 61 64 68 72 72 73 75 72 72 72 70 66 62 57 56 55 52 48 44 41 35 32 27 22 19 17 15 14 12 12
11 16 6 4 5 4 5 9 21 20 16 14 6 22 45 56 60 67 71 75 76 77 83 83 83 84 82 82 80 78 75 70 68 64 62 59 57 55 49 43 40 35 31 27 24 22 21 19 20
4 5 7 12 10 13 3 12 4 7 13 10 23 26 22 48 60 69 76 79 83 85 87 89 92 91 90 88 87 84 82 81 78 74 70 67 64 59 52 51 47 42 37 33 31 32 28 27 28
3 3 4 1 3 4 7 11 21 5 12 22 30 22 34 38 53 64 70 80 87 90 94 95 95 97 97 96 94 93 91 91 88 84 78 75 70 67 61 58 53 49 45 41 38 38 35 34 35
5 3 4 5 9 13 10 7 12 10 5 7 9 21 29 32 41 51 62 74 86 94 97 99 101 104 101 102 103 102 100 98 95 92 90 86 82 74 70 65 61 56 52 48 45 43 41 41 41
8 8 9 4 6 9 13 7 9 15 3 7 12 12 15 27 36 38 45 52 72 89 100 106 109 109 111 110 111 110 109 107 104 102 97 94 88 82 78 73 69 63 59 54 51 48 46 46 45
5 7 14 9 10 9 8 21 33 2 10 19 30 28 36 30 28 28 39 46 63 75 89 106 113 116 117 118 117 117 115 113 113 112 106 101 98 91 86 80 74 69 64 59 55 52 50 50 50
Wind_Direction_850mb
264 304 268 230 225 223 240 127 109 104 68 33 41 34 91 60 39 10 197 117 102 85 84 114 132 159 139 147 148 136 124 131 116 109 115 127 124 121 131 125 100 65 44 43 51 60 60 49 51
258 286 242 230 249 210 218 100 96 62 29 32 47 32 47 71 43 22 138 57 116 94 93 121 86 110 139 132 116 120 138 147 141 128 137 142 140 156 158 150 136 115 76 62 56 45 57 57 53
274 248 218 240 222 238 152 45 64 67 36 29 60 52 44 28 17 118 221 94 128 111 106 117 94 73 121 127 133 130 137 148 164 151 149 155 157 165 174 185 243 317 335 2 16 35 43 33 41
246 210 228 225 89 58 55 61 1 18 36 49 12 47 72 75 39 303 262 144 149 134 117 114 113 110 110 136 161 169 162 161 159 158 168 171 182 185 134 182 34 46 33 17 32 35 34 38 45
226 240 216 262 92 40 36 15 28 25 21 21 25 78 70 317 227 337 160 161 162 157 142 129 132 138 149 157 167 185 196 169 157 148 138 128 109 78 58 51 42 40 27 19 30 36 33 31 37
210 266 220 173 101 116 48 14 353 54 29 5 53 56 295 285 271 243 134 156 172 173 170 153 142 151 162 171 179 199 215 173 149 135 121 105 88 51 22 8 7 6 2 357 3 13 22 28 41
59 86 72 106 122 119 58 352 20 44 64 17 65 221 211 292 265 250 139 157 180 185 185 183 165 163 179 184 193 209 197 182 170 153 126 115 358 329 327 329 335 336 339 338 331 323 317 334 7
63 64 79 17 101 104 43 67 77 44 301 188 150 236 205 233 251 226 151 153 190 186 201 200 192 194 187 204 217 235 238 216 202 183 181 286 321 310 316 346 341 348 356 350 344 334 332 12 280
339 102 86 47 11 98 231 82 23 34 240 245 198 231 261 206 177 259 152 147 177 183 192 201 214 215 222 222 225 228 229 218 220 202 196 272 316 43 28 21 37 33 29 34 38 37 28 38 184
6 72 112 334 357 119 85 15 16 334 303 325 312 217 185 200 159 185 251 162 165 168 180 189 198 212 224 224 222 214 211 213 193 185 194 167 157 109 84 67 40 42 53 49 44 55 77 95 104
22 67 113 66 95 121 120 162 216 337 298 243 258 265 177 172 196 185 200 207 180 152 157 163 167 186 195 197 193 198 192 192 181 180 157 150 142 120 89 76 47 32 33 42 56 82 105 114 117
90 69 97 156 156 162 175 156 158 205 239 217 231 244 213 190 189 195 194 193 180 153 148 153 154 151 146 157 162 174 174 173 162 175 142 138 145 120 110 98 85 78 74 78 81 85 87 94 99
64 72 66 90 106 86 124 191 254 228 192 174 191 213 218 205 200 197 197 197 178 161 145 145 149 146 146 144 148 156 165 146 145 145 146 144 135 137 119 108 98 93 86 83 83 86 91 96 103
60 74 97 49 306 166 50 295 338 228 195 189 196 208 212 216 211 205 203 198 194 183 165 145 148 149 153 156 153 151 151 148 152 147 141 135 132 123 114 114 107 101 96 88 87 88 93 96 100
135 5 158 173 305 285 285 222 231 195 190 212 215 218 212 205 211 214 215 214 209 203 199 174 166 170 162 167 161 164 167 154 144 148 146 136 132 121 120 119 114 107 99 91 87 88 88 97 101
254 255 328 56 345 111 208 328 202 187 197 212 209 214 216 213 214 212 212 212 208 204 199 187 189 169 164 162 163 157 145 139 135 120 131 140 132 128 125 117 112 103 100 97 91 94 95 99 114
52 2 3 150 40 317 253 317 188 196 211 225 219 219 220 219 212 211 206 201 192 184 179 175 172 171 177 183 187 198 207 196 189 181 169 158 157 147 132 119 117 113 107 102 97 88 86 95 103
342 356 343 352 4 316 261 266 233 218 218 227 224 221 220 219 218 212 210 205 200 197 194 192 193 195 196 200 199 195 184 179 182 179 182 180 173 163 147 136 126 123 117 107 99 94 86 83 102
241 305 313 333 8 328 274 276 274 216 228 230 225 219 219 220 215 208 207 213 210 208 204 203 203 203 204 201 196 194 200 208 209 200 200 192 182 174 174 158 144 133 122 113 109 99 88 78 91
329 329 358 303 307 323 309 295 264 214 222 224 225 224 220 214 208 207 207 209 212 212 210 211 210 208 204 204 213 219 217 211 210 205 202 200 200 194 187 180 168 156 138 123 109 103 93 77 69
39 6 360 323 316 91 317 272 199 219 213 222 227 228 224 219 215 212 210 210 210 213 214 214 213 214 216 216 214 215 215 217 215 214 213 212 211 208 204 200 198 192 176 153 127 89 76 79 63
326 17 318 328 354 348 14 289 265 187 219 226 225 225 224 219 217 216 215 215 214 215 214 216 215 216 216 216 218 220 221 220 222 223 221 219 218 215 213 212 214 214 210 219 222 184 60 32 10
348 330 321 318 343 295 31 292 249 135 249 236 227 225 224 223 220 217 215 215 215 218 218 220 220 222 222 222 224 225 225 225 226 226 225 225 225 224 222 222 225 226 228 236 248 267 285 297 311
312 288 250 292 309 329 124 33 289 196 243 355 247 223 221 219 218 220 219 218 218 220 222 223 223 225 225 225 227 227 228 226 224 226 228 229 230 230 230 229 232 236 241 250 257 264 272 285 295
288 301 307 338 355 316 106 273 257 284 272 242 259 221 219 220 218 217 216 217 220 220 225 224 224 226 225 226 228 228 229 228 230 232 233 233 234 234 235 235 237 240 243 247 256 264 269 277 287
35 354 322 310 307 302 25 232 243 261 219 246 234 236 225 215 218 220 221 224 229 229 231 230 229 228 228 229 230 231 231 231 231 233 234 235 238 240 240 240 239 241 244 249 256 262 268 276 279
65 205 116 56 112 277 230 262 278 251 271 244 237 235 225 219 221 225 229 233 235 236 236 235 234 236 235 234 234 233 234 234 233 235 235 237 237 239 239 241 242 242 245 248 253 260 266 268 273
291 22 245 151 290 287 226 261 247 268 263 243 251 257 248 237 230 232 237 243 245 244 243 241 240 240 240 240 238 238 237 237 237 237 237 237 239 237 238 239 242 243 246 248 251 258 263 266 272
163 202 212 316 248 263 291 244 233 253 301 322 318 308 264 233 244 251 254 260 257 253 249 247 244 243 242 241 241 241 240 239 239 239 239 239 239 239 239 240 242 242 244 246 249 255 261 266 271
316 280 194 220 202 242 277 268 260 303 312 322 298 284 299 275 255 267 289 286 279 264 257 254 251 247 248 247 244 243 243 242 241 241 240 240 240 239 240 240 241 241 242 245 248 253 258 262 267